When you browse on this site, cookies collect data to enhance your experience and personalize the content and advertising you see.
Visit our Privacy Policy to learn more. By continuing to use the site, you agree to this use of cookies and data.
  • In Schweiz
  • Länderverzeichnis
  • Für 7 Tage
  • Wassertemperatur
  • Wetterkarte
  • Widgets
  • user-avatar
    Anmelden

    Stündliche Wetter Lille

    Heute, 6 Juni, Samstag

    Zeit Temperatur Niederschläge Wind Luftdruck Luftfeuchtigkeit
    00:00 +7°C° 0 mm 4 m/S 746 mmHg 86%
    01:00 +7°C° 0.1 mm 4 m/S 746 mmHg 87%
    02:00 +7°C° 0.1 mm 4 m/S 746 mmHg 87%
    03:00 +7°C° 0.1 mm 4 m/S 746 mmHg 87%
    04:00 +8°C° 0.4 mm 5 m/S 746 mmHg 84%
    05:00 +8°C° 0.4 mm 5 m/S 747 mmHg 82%
    06:00 +9°C° 0.4 mm 6 m/S 747 mmHg 79%
    07:00 +10°C° 0 mm 6 m/S 747 mmHg 70%
    08:00 +11°C° 0 mm 7 m/S 747 mmHg 62%
    09:00 +12°C° 0 mm 8 m/S 747 mmHg 54%
    10:00 +13°C° 0 mm 9 m/S 748 mmHg 52%
    11:00 +13°C° 0 mm 9 m/S 748 mmHg 50%
    12:00 +14°C° 0 mm 10 m/S 748 mmHg 48%
    13:00 +13°C° 0 mm 10 m/S 748 mmHg 51%
    14:00 +13°C° 0 mm 10 m/S 748 mmHg 54%
    15:00 +12°C° 0 mm 9 m/S 748 mmHg 57%
    16:00 +12°C° 0 mm 9 m/S 748 mmHg 60%
    17:00 +11°C° 0 mm 8 m/S 748 mmHg 62%
    18:00 +11°C° 0 mm 8 m/S 748 mmHg 65%
    19:00 +10°C° 0.3 mm 7 m/S 748 mmHg 71%
    20:00 +10°C° 0.3 mm 7 m/S 748 mmHg 77%
    21:00 +10°C° 0.3 mm 7 m/S 748 mmHg 83%
    22:00 +9°C° 0.2 mm 6 m/S 749 mmHg 85%
    23:00 +9°C° 0.2 mm 6 m/S 749 mmHg 87%

    Morgen, 7 Juni, Sonntag

    Zeit Temperatur Niederschläge Wind Luftdruck Luftfeuchtigkeit
    00:00 +9°C° 0.2 mm 5 m/S 749 mmHg 90%
    01:00 +8°C° 0.1 mm 5 m/S 749 mmHg 90%
    02:00 +8°C° 0.1 mm 4 m/S 749 mmHg 91%
    03:00 +8°C° 0.1 mm 4 m/S 750 mmHg 92%
    04:00 +8°C° 0 mm 4 m/S 750 mmHg 88%
    05:00 +10°C° 0 mm 4 m/S 751 mmHg 84%
    06:00 +11°C° 0 mm 4 m/S 751 mmHg 80%
    07:00 +12°C° 0 mm 4 m/S 752 mmHg 73%
    08:00 +14°C° 0 mm 4 m/S 752 mmHg 66%
    09:00 +15°C° 0 mm 4 m/S 753 mmHg 60%
    10:00 +17°C° 0 mm 4 m/S 753 mmHg 57%
    11:00 +18°C° 0 mm 4 m/S 754 mmHg 54%
    12:00 +19°C° 0 mm 4 m/S 754 mmHg 51%
    13:00 +19°C° 0.1 mm 4 m/S 754 mmHg 50%
    14:00 +19°C° 0.1 mm 3 m/S 754 mmHg 50%
    15:00 +20°C° 0.1 mm 3 m/S 754 mmHg 49%
    16:00 +19°C° 0 mm 3 m/S 754 mmHg 53%
    17:00 +18°C° 0 mm 3 m/S 754 mmHg 57%
    18:00 +18°C° 0 mm 3 m/S 754 mmHg 61%
    19:00 +16°C° 0 mm 2 m/S 755 mmHg 68%
    20:00 +14°C° 0 mm 2 m/S 756 mmHg 75%
    21:00 +12°C° 0 mm 2 m/S 756 mmHg 82%
    22:00 +12°C° 0 mm 2 m/S 756 mmHg 84%
    23:00 +10°C° 0 mm 2 m/S 756 mmHg 87%

    übermorgen, 8 Juni, Montag

    Zeit Temperatur Niederschläge Wind Luftdruck Luftfeuchtigkeit
    00:00 +10°C° 0 mm 2 m/S 756 mmHg 89%
    01:00 +10°C° 0 mm 2 m/S 757 mmHg 90%
    02:00 +10°C° 0 mm 2 m/S 757 mmHg 91%
    03:00 +10°C° 0 mm 2 m/S 757 mmHg 92%
    04:00 +12°C° 0 mm 2 m/S 757 mmHg 90%
    05:00 +13°C° 0 mm 2 m/S 757 mmHg 87%
    06:00 +14°C° 0 mm 2 m/S 758 mmHg 85%
    07:00 +15°C° 0.1 mm 2 m/S 758 mmHg 78%
    08:00 +16°C° 0.1 mm 3 m/S 758 mmHg 71%
    09:00 +17°C° 0.1 mm 3 m/S 759 mmHg 65%
    10:00 +17°C° 0.1 mm 4 m/S 759 mmHg 66%
    11:00 +16°C° 0.1 mm 5 m/S 759 mmHg 68%
    12:00 +16°C° 0.1 mm 6 m/S 759 mmHg 70%
    13:00 +16°C° 0 mm 6 m/S 759 mmHg 66%
    14:00 +17°C° 0 mm 6 m/S 759 mmHg 62%
    15:00 +17°C° 0 mm 6 m/S 759 mmHg 59%
    16:00 +16°C° 0 mm 6 m/S 759 mmHg 62%
    17:00 +15°C° 0 mm 6 m/S 759 mmHg 65%
    18:00 +14°C° 0 mm 6 m/S 760 mmHg 68%
    19:00 +13°C° 0 mm 5 m/S 760 mmHg 72%
    20:00 +10°C° 0 mm 5 m/S 761 mmHg 76%
    21:00 +10°C° 0 mm 4 m/S 761 mmHg 79%
    22:00 +10°C° 0 mm 4 m/S 761 mmHg 78%
    23:00 +10°C° 0 mm 4 m/S 761 mmHg 77%

    9 Juni, Dienstag

    Zeit Temperatur Niederschläge Wind Luftdruck Luftfeuchtigkeit
    00:00 +10°C° 0 mm 4 m/S 761 mmHg 76%
    01:00 +10°C° 0 mm 3 m/S 761 mmHg 74%
    02:00 +10°C° 0 mm 3 m/S 761 mmHg 72%
    03:00 +10°C° 0 mm 3 m/S 761 mmHg 71%
    04:00 +11°C° 0 mm 3 m/S 761 mmHg 70%
    05:00 +11°C° 0 mm 3 m/S 762 mmHg 69%
    06:00 +11°C° 0 mm 4 m/S 762 mmHg 68%
    07:00 +12°C° 0 mm 4 m/S 762 mmHg 65%
    08:00 +13°C° 0 mm 4 m/S 762 mmHg 63%
    09:00 +14°C° 0 mm 4 m/S 762 mmHg 60%
    10:00 +14°C° 0 mm 4 m/S 762 mmHg 58%
    11:00 +15°C° 0 mm 4 m/S 762 mmHg 56%
    12:00 +17°C° 0 mm 4 m/S 762 mmHg 53%
    13:00 +16°C° 0 mm 5 m/S 762 mmHg 53%
    14:00 +16°C° 0 mm 5 m/S 762 mmHg 53%
    15:00 +16°C° 0 mm 5 m/S 762 mmHg 52%
    16:00 +15°C° 0 mm 5 m/S 762 mmHg 55%
    17:00 +14°C° 0 mm 5 m/S 762 mmHg 58%
    18:00 +14°C° 0 mm 5 m/S 762 mmHg 61%
    19:00 +12°C° 0 mm 5 m/S 762 mmHg 67%
    20:00 +10°C° 0 mm 4 m/S 763 mmHg 72%
    21:00 +9°C° 0 mm 3 m/S 763 mmHg 77%
    22:00 +8°C° 0 mm 3 m/S 763 mmHg 79%
    23:00 +8°C° 0 mm 3 m/S 763 mmHg 81%

    10 Juni, Mittwoch

    Zeit Temperatur Niederschläge Wind Luftdruck Luftfeuchtigkeit
    00:00 +8°C° 0 mm 3 m/S 763 mmHg 83%
    01:00 +7°C° 0 mm 2 m/S 763 mmHg 84%
    02:00 +7°C° 0 mm 2 m/S 763 mmHg 85%
    03:00 +7°C° 0 mm 2 m/S 763 mmHg 86%
    04:00 +8°C° 0 mm 2 m/S 763 mmHg 82%
    05:00 +9°C° 0 mm 2 m/S 764 mmHg 78%
    06:00 +10°C° 0 mm 2 m/S 764 mmHg 74%
    07:00 +12°C° 0 mm 3 m/S 764 mmHg 68%
    08:00 +13°C° 0 mm 3 m/S 764 mmHg 63%
    09:00 +16°C° 0 mm 3 m/S 764 mmHg 57%
    10:00 +17°C° 0 mm 3 m/S 764 mmHg 54%
    11:00 +18°C° 0 mm 4 m/S 764 mmHg 51%
    12:00 +19°C° 0 mm 4 m/S 764 mmHg 47%
    13:00 +19°C° 0 mm 4 m/S 764 mmHg 49%
    14:00 +19°C° 0 mm 5 m/S 763 mmHg 50%
    15:00 +19°C° 0 mm 5 m/S 763 mmHg 51%
    16:00 +17°C° 0 mm 5 m/S 763 mmHg 55%
    17:00 +16°C° 0 mm 5 m/S 764 mmHg 59%
    18:00 +15°C° 0 mm 5 m/S 764 mmHg 64%
    19:00 +14°C° 0 mm 4 m/S 764 mmHg 70%
    20:00 +12°C° 0 mm 4 m/S 764 mmHg 76%
    21:00 +11°C° 0 mm 3 m/S 765 mmHg 82%
    22:00 +10°C° 0 mm 3 m/S 765 mmHg 84%
    23:00 +10°C° 0 mm 3 m/S 765 mmHg 86%

    11 Juni, Donnerstag

    Zeit Temperatur Niederschläge Wind Luftdruck Luftfeuchtigkeit
    00:00 +10°C° 0 mm 2 m/S 765 mmHg 87%
    01:00 +9°C° 0 mm 2 m/S 764 mmHg 88%
    02:00 +9°C° 0 mm 2 m/S 764 mmHg 89%
    03:00 +9°C° 0 mm 2 m/S 764 mmHg 90%
    04:00 +9°C° 0 mm 2 m/S 764 mmHg 88%
    05:00 +10°C° 0 mm 3 m/S 764 mmHg 85%
    06:00 +11°C° 0 mm 3 m/S 764 mmHg 82%
    07:00 +13°C° 0 mm 3 m/S 764 mmHg 74%
    08:00 +16°C° 0 mm 3 m/S 764 mmHg 66%
    09:00 +17°C° 0 mm 4 m/S 764 mmHg 58%
    10:00 +19°C° 0 mm 4 m/S 764 mmHg 53%
    11:00 +20°C° 0 mm 4 m/S 763 mmHg 48%
    12:00 +21°C° 0 mm 4 m/S 763 mmHg 43%
    13:00 +21°C° 0 mm 4 m/S 762 mmHg 44%
    14:00 +22°C° 0 mm 4 m/S 762 mmHg 45%
    15:00 +22°C° 0 mm 5 m/S 762 mmHg 45%
    16:00 +21°C° 0 mm 5 m/S 761 mmHg 51%
    17:00 +20°C° 0 mm 5 m/S 761 mmHg 56%
    18:00 +19°C° 0 mm 5 m/S 761 mmHg 61%
    19:00 +17°C° 0 mm 4 m/S 761 mmHg 68%
    20:00 +15°C° 0 mm 4 m/S 761 mmHg 76%
    21:00 +13°C° 0 mm 3 m/S 761 mmHg 83%
    22:00 +13°C° 0 mm 3 m/S 761 mmHg 85%
    23:00 +12°C° 0 mm 3 m/S 761 mmHg 86%
    Mehr zeigen